Location: Mountain Grove
(34.0887°N, 86.6172°W)
Time: 21:25:15
(UTC+00:00)

Cosmos 1624 Rocket - Pass Details

Date: 14 July 2020
Orbit: 758 x 783 km, 74.0° (Epoch: 08 August)

Event Time Altitude Azimuth Distance (km) Brightness Sun altitude
Rises 03:25:53 0° 346° (NNW) 3,227 8.3 -24.3°
Reaches altitude 10° 03:28:18 10° 350° (N) 2,295 7.3 -24.6°
Maximum altitude 03:33:28 64° 72° (ENE) 838 4.0 -25.2°
Enters shadow 03:33:34 64° 79° (E) 840 4.0 -25.2°
